Total_Precipitation_Accumulation
0.03 0.07 0.11 0.13 0.12 0.10 0.08 0.08 0.10 0.11 0.15 0.17 0.20 0.16 0.10 0.12 0.16 0.10 0.07 0.07 0.05 0.04 0.04 0.03 0.04 0.06 0.07 0.09 0.09 0.09 0.10 0.11 0.12 0.14 0.17 0.17 0.18 0.21 0.24 0.25 0.26 0.30 0.34 0.35
0.05 0.08 0.09 0.11 0.13 0.09 0.06 0.05 0.05 0.06 0.08 0.12 0.18 0.19 0.18 0.16 0.13 0.10 0.09 0.08 0.08 0.10 0.08 0.06 0.06 0.06 0.07 0.09 0.12 0.13 0.16 0.18 0.15 0.17 0.19 0.18 0.19 0.21 0.25 0.28 0.32 0.35 0.36 0.41
0.13 0.13 0.12 0.13 0.12 0.09 0.06 0.07 0.07 0.07 0.10 0.13 0.18 0.21 0.25 0.27 0.19 0.14 0.15 0.15 0.16 0.19 0.14 0.11 0.09 0.10 0.11 0.13 0.14 0.17 0.19 0.24 0.24 0.25 0.26 0.25 0.25 0.30 0.33 0.36 0.41 0.45 0.43 0.43
0.17 0.20 0.23 0.14 0.11 0.10 0.09 0.09 0.10 0.14 0.19 0.22 0.29 0.33 0.36 0.40 0.36 0.25 0.17 0.14 0.13 0.13 0.15 0.19 0.19 0.17 0.18 0.22 0.27 0.34 0.36 0.41 0.47 0.50 0.49 0.49 0.52 0.52 0.52 0.53 0.52 0.51 0.50 0.51
0.25 0.31 0.27 0.18 0.16 0.15 0.16 0.18 0.21 0.28 0.39 0.43 0.43 0.43 0.39 0.29 0.23 0.17 0.13 0.11 0.11 0.13 0.15 0.20 0.27 0.27 0.25 0.26 0.31 0.41 0.51 0.57 0.64 0.69 0.70 0.70 0.70 0.69 0.71 0.74 0.71 0.67 0.65 0.65
0.29 0.32 0.35 0.29 0.28 0.27 0.30 0.46 0.43 0.50 0.49 0.41 0.33 0.36 0.30 0.18 0.12 0.09 0.07 0.08 0.10 0.12 0.14 0.19 0.25 0.27 0.28 0.32 0.35 0.38 0.41 0.50 0.62 0.76 0.83 0.80 0.77 0.80 0.85 0.91 0.88 0.87 0.86 0.85
0.34 0.35 0.31 0.31 0.31 0.34 0.57 0.72 0.60 0.57 0.49 0.41 0.36 0.34 0.30 0.20 0.12 0.08 0.07 0.07 0.09 0.10 0.13 0.17 0.22 0.29 0.39 0.45 0.45 0.44 0.45 0.49 0.55 0.66 0.77 0.77 0.79 0.84 0.89 0.92 0.93 0.94 0.90 0.83
0.49 0.57 0.54 0.37 0.39 0.55 0.66 0.53 0.50 0.47 0.46 0.45 0.40 0.30 0.22 0.16 0.12 0.10 0.09 0.09 0.11 0.12 0.14 0.17 0.23 0.32 0.43 0.54 0.58 0.60 0.64 0.67 0.70 0.75 0.75 0.74 0.83 0.89 0.95 0.99 0.97 0.95 0.98 0.91
0.62 0.66 0.56 0.47 0.48 0.47 0.47 0.49 0.47 0.40 0.40 0.37 0.35 0.29 0.19 0.13 0.11 0.10 0.09 0.09 0.10 0.13 0.17 0.21 0.27 0.38 0.50 0.56 0.60 0.64 0.69 0.74 0.81 0.87 0.90 0.90 0.93 0.96 1.05 1.10 1.07 1.02 1.03 1.05
0.67 0.66 0.55 0.49 0.49 0.43 0.37 0.36 0.36 0.33 0.30 0.28 0.26 0.25 0.23 0.14 0.09 0.07 0.06 0.07 0.09 0.12 0.17 0.20 0.21 0.27 0.36 0.45 0.52 0.56 0.58 0.61 0.66 0.74 0.81 0.91 1.03 1.03 1.06 1.11 1.14 1.13 1.10 1.04
0.62 0.71 0.75 0.65 0.57 0.49 0.40 0.38 0.37 0.33 0.28 0.25 0.20 0.17 0.17 0.14 0.10 0.07 0.05 0.06 0.08 0.13 0.16 0.17 0.17 0.19 0.23 0.31 0.45 0.54 0.56 0.56 0.61 0.68 0.76 0.88 1.02 1.06 0.98 1.00 1.04 1.01 0.94 0.90
0.47 0.53 0.64 0.69 0.61 0.51 0.40 0.37 0.36 0.34 0.31 0.27 0.21 0.14 0.08 0.07 0.07 0.07 0.07 0.09 0.14 0.16 0.17 0.16 0.17 0.19 0.21 0.28 0.42 0.54 0.57 0.55 0.57 0.61 0.70 0.80 0.93 0.98 0.85 0.72 0.71 0.71 0.63 0.56
0.29 0.39 0.45 0.54 0.52 0.45 0.37 0.32 0.24 0.21 0.16 0.15 0.14 0.14 0.08 0.06 0.05 0.07 0.11 0.18 0.24 0.26 0.25 0.23 0.24 0.25 0.26 0.33 0.48 0.65 0.63 0.58 0.60 0.62 0.66 0.71 0.80 0.93 0.96 0.81 0.63 0.56 0.46 0.36
0.29 0.36 0.45 0.48 0.40 0.31 0.25 0.19 0.16 0.15 0.13 0.12 0.13 0.14 0.11 0.09 0.10 0.12 0.17 0.27 0.32 0.33 0.32 0.32 0.32 0.30 0.31 0.35 0.44 0.69 0.80 0.70 0.61 0.61 0.67 0.72 0.78 0.85 0.94 0.99 0.90 0.71 0.49 0.30
0.29 0.24 0.26 0.27 0.24 0.21 0.18 0.16 0.15 0.14 0.11 0.08 0.07 0.08 0.08 0.09 0.13 0.16 0.24 0.35 0.43 0.42 0.38 0.37 0.38 0.35 0.34 0.35 0.39 0.49 0.70 0.73 0.65 0.60 0.63 0.70 0.73 0.78 0.86 0.92 0.99 0.96 0.73 0.45
0.30 0.23 0.19 0.19 0.19 0.14 0.11 0.11 0.12 0.12 0.09 0.07 0.05 0.05 0.06 0.08 0.12 0.18 0.27 0.42 0.61 0.63 0.54 0.49 0.46 0.40 0.37 0.39 0.42 0.46 0.53 0.50 0.49 0.57 0.61 0.67 0.73 0.76 0.81 0.89 0.95 0.97 0.86 0.63
0.27 0.23 0.19 0.18 0.16 0.12 0.11 0.11 0.10 0.09 0.08 0.07 0.07 0.07 0.09 0.14 0.22 0.30 0.37 0.46 0.58 0.63 0.61 0.60 0.53 0.43 0.40 0.42 0.45 0.46 0.50 0.44 0.34 0.45 0.59 0.65 0.71 0.76 0.78 0.84 0.90 0.93 0.84 0.55
0.17 0.14 0.13 0.15 0.16 0.14 0.13 0.11 0.09 0.08 0.08 0.08 0.09 0.12 0.16 0.26 0.43 0.55 0.60 0.64 0.64 0.57 0.54 0.56 0.47 0.37 0.34 0.34 0.38 0.42 0.52 0.51 0.38 0.41 0.54 0.60 0.63 0.76 0.80 0.82 0.84 0.86 0.77 0.52
0.12 0.11 0.10 0.09 0.09 0.09 0.08 0.08 0.07 0.08 0.08 0.11 0.17 0.22 0.26 0.35 0.50 0.62 0.68 0.79 0.87 0.79 0.63 0.52 0.40 0.33 0.30 0.25 0.24 0.33 0.45 0.50 0.41 0.39 0.49 0.48 0.55 0.73 0.78 0.78 0.81 0.81 0.68 0.57
0.10 0.09 0.09 0.08 0.07 0.05 0.05 0.05 0.06 0.08 0.10 0.16 0.25 0.30 0.35 0.41 0.50 0.61 0.64 0.72 0.86 0.88 0.74 0.55 0.37 0.29 0.24 0.19 0.19 0.27 0.39 0.47 0.40 0.33 0.37 0.47 0.58 0.69 0.75 0.74 0.76 0.79 0.69 0.60
0.09 0.07 0.05 0.05 0.05 0.05 0.05 0.06 0.09 0.13 0.15 0.21 0.30 0.38 0.46 0.45 0.47 0.56 0.69 0.77 0.72 0.75 0.73 0.64 0.44 0.29 0.20 0.20 0.21 0.29 0.39 0.46 0.38 0.30 0.31 0.40 0.55 0.66 0.73 0.74 0.75 0.74 0.66 0.60
0.05 0.04 0.04 0.04 0.05 0.05 0.05 0.06 0.09 0.12 0.17 0.26 0.34 0.41 0.49 0.48 0.49 0.48 0.52 0.66 0.69 0.78 0.73 0.66 0.54 0.38 0.25 0.19 0.20 0.26 0.36 0.42 0.38 0.30 0.28 0.35 0.49 0.59 0.66 0.70 0.72 0.70 0.67 0.64
0.03 0.02 0.01 0.01 0.02 0.03 0.03 0.04 0.05 0.08 0.19 0.33 0.39 0.45 0.52 0.48 0.52 0.63 0.58 0.49 0.54 0.67 0.61 0.54 0.53 0.43 0.30 0.23 0.21 0.27 0.38 0.46 0.44 0.34 0.29 0.35 0.43 0.47 0.54 0.58 0.61 0.65 0.69 0.65
0.03 0.02 0.01 0.01 0.01 0.02 0.04 0.05 0.04 0.07 0.19 0.30 0.30 0.37 0.43 0.44 0.46 0.48 0.50 0.50 0.53 0.59 0.51 0.47 0.45 0.41 0.38 0.34 0.34 0.36 0.41 0.45 0.42 0.32 0.29 0.33 0.36 0.39 0.47 0.56 0.64 0.70 0.67 0.60
0.03 0.03 0.02 0.02 0.04 0.05 0.07 0.06 0.06 0.09 0.22 0.35 0.30 0.31 0.33 0.37 0.47 0.49 0.47 0.45 0.50 0.52 0.48 0.47 0.42 0.39 0.38 0.45 0.51 0.49 0.45 0.42 0.38 0.32 0.29 0.30 0.33 0.37 0.45 0.58 0.67 0.69 0.61 0.58
0.04 0.04 0.04 0.04 0.05 0.06 0.07 0.08 0.09 0.12 0.28 0.52 0.47 0.39 0.35 0.33 0.37 0.44 0.51 0.50 0.50 0.53 0.50 0.46 0.40 0.40 0.40 0.50 0.55 0.51 0.44 0.40 0.39 0.36 0.34 0.34 0.39 0.45 0.53 0.62 0.64 0.55 0.49 0.47
0.04 0.04 0.04 0.04 0.05 0.05 0.07 0.10 0.13 0.16 0.30 0.56 0.62 0.45 0.38 0.37 0.40 0.46 0.53 0.56 0.53 0.51 0.48 0.43 0.38 0.36 0.37 0.42 0.43 0.43 0.41 0.40 0.41 0.40 0.38 0.39 0.41 0.46 0.48 0.53 0.52 0.45 0.41 0.39